ELECTRON KICK STAGE R/B

Satellite information

Favourite Embed

Satellite Type and Status

ROCKET BODYIN ORBIT

Key statistics

Satellite ELECTRON KICK STAGE R/B at a glance.

Uptime

844

Days in orbit

Revolutions

≈ 14.8

Per day

Orbit

LEO

Low Earth Orbit

Inclination

53.0

Latest

Satellite identification and parameters

Extended collection of information and parameters for ELECTRON KICK STAGE R/B.

Object identification

Identified? True

Debris? False

Object name: ELECTRON KICK STAGE R/B

International designator: 2023-126B

Object number (NORAD): 57694

Object ID (CCSDS): 57694

Country: UNITED STATES OF AMERICA (US)

Current information (Y/N): Y

RCS size: MEDIUM

Orbital parameters

Period: 97.064 minutes

Inclination: 53.008 deg

SMA: 6996.234 km

Apoapsis: 623.969 km

Periapsis: 612.229 km

RAAN: 259.812 deg

Eccentricy: 0.00083902

Argument of periapsis: 194.0754 deg

Mean anomaly: 165.9992 deg

Mean motion: 14.83563842 rev/day

Mean motion (dot): 0.00004294 rev/day2

B* drag term: 0.00054354437 1/REarth

Two-line elements (TLE)

Creation date: Dec. 14, 2025, 3:07 a.m.

Reference frame: TEME

Reference center: EARTH

Epoch: Dec. 13, 2025, 11:34 a.m. UTC

TLE line 0: 0 ELECTRON KICK STAGE R/B

TLE line 1: 1 57694U 23126B 25347.48262522 .00004294 00000-0 54354-3 0 9990

TLE line 2: 2 57694 53.0080 259.8120 0008390 194.0754 165.9992 14.83563842124716

Live tracking on map

Real-time ground track for satellite ELECTRON KICK STAGE R/B.

In-orbit conjunctions

A list of the most updated potential collisions computed for object ELECTRON KICK STAGE R/B.

Target Orbit TCA Probability of collision Miss distance Type
CZ-4 DEB SSO 2024-09-27 08:18:57 0.0003041699 584.0 (m) DEBRIS
CZ-6A DEB SSO 2024-07-09 06:28:03 0.0001147316 246.0 (m) DEBRIS

Associated space launch

Payload consists of a single SAR Earth-imaging Acadia satellite, a new generation satellite designed, manufactured, and operated by Capella Space. First mission to fly with a reused engine.

ELECTRON KICK STAGE R/B was lifted into orbit during the mission ‘Electron | We Love the Nightlife (Capella Acadia 1)’, on board a Electron space rocket.

The launch took place on Aug. 23, 2023, 11:45 p.m. from Rocket Lab Launch Complex 1B.

For more information about the launch, click the button.

Launch to space Electron | We Love the Nightlife (Capella Acadia 1)
Electron | We Love the Nightlife (Capella Acadia 1)

Agency: Capella Space

Status: Launch Successful

Launch date: Aug. 23, 2023, 11:45 p.m. UTC

Rocket: Electron

Launch pad: Rocket Lab Launch Complex 1B

Location: Rocket Lab Launch Complex 1, Mahia Peninsula, New Zealand

...

Latest news about this satellite

News about space launch
RocketLab Flys Recovered Electron Engine For First Time

Rocket Lab has achieved a significant milestone in the effort to make Electron reusable, for the first time the company has flown an engine that had previously flown before and was recovered from the ocean.

News about space launch
The re-flight of a Rutherford engine demonstrates rocket reuse is here to stay

"The data is in, perfect performance from the reused engine."

News about space launch
Rocket Lab launches 40th mission, first re-flown Rutherford engine

Rocket Lab’s ‘We Love the Nightlife’ mission lifted off at 11:45 a.m. NZST (23:45 UTC), bringing the Acadia satellite to orbit and...


Newsletter sign-up

Weekly statistics, charts and insights to help you stay on top of the space industry.